CZ-6A DEB, 55868

Orbit data source: Space-Track

CZ-6A DEB, 55868 is space debris in SSO originally from a launch on Fri, 11 Nov 2022 UTC launched from the Taiyaun Space Center, China (TSC). Debris objects in space refer to the collection of defunct objects orbiting the Earth. Examples of debris include non-operational satellites, rocket bodies, and fragments generated from explosions, collisions, or faulty payload assembly.

Loading next visibility...
Identifier
55868, 2022-151ZQ
Orbit
SSO
Country
Flag of CNCN / PRC
Related business
Manufacturer
SAST
Mission
Spacecraft
Bus & Motor
Unknown
Mass
Unknown
Launch date (UTC)
2022-11-11 (4 years ago)
Launch vehicle
Unknown
Launch site
Taiyaun Space Center, China (TSC)
Object type
Payload
Rocket body
Debris
Shape & HBR
Unknown shape, 0.1 m
Radar Cross Section
Medium (>0.1 m² and <1 m²)

Expand to show TLE details & history
Last TLE update: 2 days ago

TLE from 2 days ago
0 CZ-6A DEB
1 55868U 22151ZQ  26171.08877717  .00005393  00000-0  10480-2 0  9990
2 55868  98.5877 219.3180 0063601 303.9681  55.5485 14.62307174109397
Epoch: 2026-06-20T02:07Z
TLE epoch observation values (Epoch: 2026-06-20T02:07:50.347Z)
Latitude
-0.00001°
Longitude
-80.95019°
Altitude
663.485 km
Speed
7.539 km/s
True Right ascension
14h 37m 16s
True Declination
0° 00' 00"
Sunlit
Object was in full shadow at epoch
Visualization orbit readout
Latitude
Unknown
Longitude
Unknown
Altitude
Unknown
Speed
Unknown
Apparent Right ascension
Unknown
Apparent Declination
Unknown
Sunlit
N/A
Visualization observer readout
Local Sidereal Time
21:24:55
Azimuth
Unknown
Elevation
Unknown
Doppler factor
Unknown
Orbital elements
Apogee altitude
727.739 km
Perigee altitude
637.922 km
Semi-major axis
7,060.967 km
Eccentricity
0.00636
Inclination
98.5877°
RAAN
219.318°
Arg. of periapsis
303.9681°
True anomaly
56.15219°
Mean anomaly
55.5485°
Eccentric anomaly
55.85007°
Mean motion
3.65803 °/min
Orbital period
98.41 mins
BSTAR
0.001048
Loading maneuver chart data...
Computing Atmospheric mass density...
Loading historical data...
Loading historical data...
Loading historical data...
Loading historical data...
Loading historical data...
Loading historical data...
Loading historical data...

Documentation

Showing up to 5 results
|